AE7MK-13 Weather Reports


time (UTC)temp
F
wind
direction
speed
knots
gust
knots
rain 1hr
in
rain 24hr
in
rain mn
in
humidity
%
barometer
mb
20260509043003 50 290 15.6 23.5 0.00 0.00 0.00 42 1018.3
20260509042003 50 284 16.5 27.8 0.00 0.00 0.00 41 1018.2
20260509041213 51 282 15.6 27.8 0.00 0.00 0.00 40 1018.1
20260509040003 52 281 19.1 28.7 0.00 0.00 0.00 37 1017.7
20260509035003 52 278 20.0 30.4 0.00 0.00 0.00 37 1017.2
20260509034003 52 275 20.0 32.2 0.00 0.00 0.00 35 1017.1
20260509033003 51 264 20.9 27.8 0.00 0.00 0.00 35 1016.9
20260509032003 52 269 20.0 26.1 0.00 0.00 0.00 33 1016.9
20260509031003 52 269 17.4 27.8 0.00 0.00 0.00 34 1017.1
20260509030004 53 277 16.5 22.6 0.00 0.00 0.00 33 1017.3
20260509025003 53 278 16.5 24.3 0.00 0.00 0.00 33 1017.3
20260509024003 54 279 14.8 22.6 0.00 0.00 0.00 32 1017.3
20260509023003 54 293 13.9 20.9 0.00 0.00 0.00 32 1017.5
20260509022003 55 296 13.0 19.1 0.00 0.00 0.00 32 1017.4
20260509021003 55 293 14.8 22.6 0.00 0.00 0.00 31 1017.5
20260509020214 56 292 13.0 22.6 0.00 0.00 0.00 30 1017.3
20260509015003 56 284 13.0 21.7 0.00 0.00 0.00 29 1017.3
20260509014214 56 279 13.0 21.7 0.00 0.00 0.00 29 1017.3
20260509013003 57 284 12.2 19.1 0.00 0.00 0.00 27 1017.0
20260509012003 57 276 12.2 20.0 0.00 0.00 0.00 28 1017.0
20260509011003 57 274 13.0 20.9 0.00 0.00 0.00 27 1016.9
20260509010214 57 274 13.9 21.7 0.00 0.00 0.00 27 1016.9
20260509005003 57 295 15.6 24.3 0.00 0.00 0.00 27 1017.0
20260509004003 58 302 11.3 22.6 0.00 0.00 0.00 26 1017.1
20260509003214 58 304 13.9 20.9 0.00 0.00 0.00 28 1017.1
20260509002003 58 304 13.0 21.7 0.00 0.00 0.00 27 1016.8
20260509001003 58 302 11.3 18.2 0.00 0.00 0.00 27 1016.6
20260509000214 58 303 10.4 16.5 0.00 0.00 0.00 26 1016.7
20260508235003 57 298 13.0 20.0 0.00 0.00 0.00 26 1016.7
20260508234213 57 291 13.0 20.0 0.00 0.00 0.00 25 1016.7
20260508233003 57 296 15.6 24.3 0.00 0.00 0.00 22 1016.5
20260508232003 57 299 13.9 20.9 0.00 0.00 0.00 23 1016.6
20260508231003 57 288 12.2 21.7 0.00 0.00 0.00 21 1016.6
20260508230005 58 287 13.9 20.0 0.00 0.00 0.00 22 1016.5
20260508225213 58 282 14.8 22.6 0.00 0.00 0.00 21 1016.3
20260508224003 58 292 13.0 18.2 0.00 0.00 0.00 22 1016.2
20260508223003 57 289 13.9 20.0 0.00 0.00 0.00 20 1016.1
20260508222003 59 285 15.6 23.5 0.00 0.00 0.00 18 1016.2
20260508221003 60 277 16.5 22.6 0.00 0.00 0.00 16 1016.0
20260508220213 60 275 13.0 22.6 0.00 0.00 0.00 17 1016.1
20260508215003 59 295 11.3 17.4 0.00 0.00 0.00 20 1016.0
20260508214212 60 292 10.4 17.4 0.00 0.00 0.00 20 1015.9
20260508213004 59 291 9.6 13.9 0.00 0.00 0.00 21 1015.8
20260508212003 60 298 9.6 16.5 0.00 0.00 0.00 19 1015.8
20260508211003 60 303 9.6 17.4 0.00 0.00 0.00 21 1015.8
20260508210003 59 290 9.6 13.9 0.00 0.00 0.00 18 1015.7
20260508205212 60 298 11.3 16.5 0.00 0.00 0.00 20 1015.6
20260508204003 60 296 11.3 18.2 0.00 0.00 0.00 21 1015.6
20260508203003 60 299 10.4 18.2 0.00 0.00 0.00 21 1015.6
20260508202003 60 296 9.6 17.4 0.00 0.00 0.00 22 1015.7
20260508201003 59 298 9.6 13.0 0.00 0.00 0.00 24 1015.6
20260508200214 59 284 7.8 11.3 0.00 0.00 0.00 25 1015.6
20260508195004 58 275 10.4 16.5 0.00 0.00 0.00 26 1015.4
20260508194214 58 266 10.4 16.5 0.00 0.00 0.00 24 1015.4
20260508193003 59 276 8.7 14.8 0.00 0.00 0.00 24 1015.0
20260508192003 59 256 8.7 14.8 0.00 0.00 0.00 25 1015.2
20260508191003 58 253 8.7 14.8 0.00 0.00 0.00 28 1015.0
20260508190003 58 261 9.6 13.9 0.00 0.00 0.00 26 1015.1
20260508185213 58 272 9.6 15.6 0.00 0.00 0.00 25 1015.1
20260508184003 60 266 9.6 16.5 0.00 0.00 0.00 25 1015.2
20260508183213 60 261 7.8 16.5 0.00 0.00 0.00 23 1015.2
20260508182003 58 266 8.7 14.8 0.00 0.00 0.00 21 1015.3
20260508181003 57 243 11.3 16.5 0.00 0.00 0.00 22 1015.2
20260508180005 57 242 9.6 15.6 0.00 0.00 0.00 24 1015.2
20260508175003 57 265 7.0 11.3 0.00 0.00 0.00 23 1015.2
20260508174003 57 274 7.8 11.3 0.00 0.00 0.00 22 1015.1
20260508173003 55 274 7.8 13.0 0.00 0.00 0.00 26 1015.1
20260508172003 54 250 9.6 12.2 0.00 0.00 0.00 25 1014.9
20260508171003 54 243 9.6 13.0 0.00 0.00 0.00 22 1014.9
20260508170003 54 236 8.7 12.2 0.00 0.00 0.00 21 1015.0
20260508165004 54 244 7.0 11.3 0.00 0.00 0.00 19 1014.9
20260508164003 54 254 4.3 7.8 0.00 0.00 0.00 19 1014.9
20260508163003 54 251 7.0 10.4 0.00 0.00 0.00 18 1014.8
20260508162003 54 243 7.8 11.3 0.00 0.00 0.00 19 1014.8
20260508161212 54 233 7.0 10.4 0.00 0.00 0.00 18 1014.8
20260508160004 55 251 2.6 5.2 0.00 0.00 0.00 19 1014.5
20260508155003 54 248 4.3 7.0 0.00 0.00 0.00 18 1014.6
20260508154003 54 243 5.2 7.8 0.00 0.00 0.00 17 1014.5
20260508153003 54 253 4.3 7.0 0.00 0.00 0.00 19 1014.6
20260508152003 54 257 3.5 7.0 0.00 0.00 0.00 21 1014.5
20260508151003 54 264 1.7 5.2 0.00 0.00 0.00 27 1014.5
20260508150004 54 269 0.0 4.3 0.00 0.00 0.00 26 1014.4
20260508145003 54 271 1.7 3.5 0.00 0.00 0.00 25 1014.4
20260508144003 54 264 0.9 4.3 0.00 0.00 0.00 25 1014.4
20260508143003 54 299 1.7 5.2 0.00 0.00 0.00 28 1014.4
20260508142214 54 309 0.9 3.5 0.00 0.00 0.00 23 1014.2
20260508141003 54 0 0.0 0.0 0.00 0.00 0.00 28 1014.2
20260508140003 54 308 0.0 3.5 0.00 0.00 0.00 25 1014.2
20260508135003 54 309 4.3 8.7 0.00 0.00 0.00 21 1014.3
20260508134003 54 309 4.3 7.8 0.00 0.00 0.00 19 1014.1
20260508133003 54 307 5.2 7.8 0.00 0.00 0.00 19 1014.0
20260508132003 54 311 2.6 7.8 0.00 0.00 0.00 21 1013.8
20260508131003 53 318 1.7 7.0 0.00 0.00 0.00 23 1013.7
20260508130003 51 337 0.0 2.6 0.00 0.00 0.00 34 1013.8
20260508125213 51 0 0.0 0.0 0.00 0.00 0.00 39 1014.0
20260508124213 51 338 1.7 3.5 0.00 0.00 0.00 36 1014.0
20260508123003 51 324 2.6 3.5 0.00 0.00 0.00 36 1014.0
20260508122003 50 321 2.6 4.3 0.00 0.00 0.00 37 1014.0
20260508121003 49 339 3.5 3.5 0.00 0.00 0.00 41 1014.1
20260508120004 49 339 2.6 3.5 0.00 0.00 0.00 40 1014.2
20260508115003 49 336 2.6 4.3 0.00 0.00 0.00 40 1014.3
20260508114003 49 334 3.5 4.3 0.00 0.00 0.00 41 1014.2
20260508113003 50 330 0.9 4.3 0.00 0.00 0.00 38 1014.1
20260508112213 51 330 0.9 3.5 0.00 0.00 0.00 36 1014.2
20260508111003 50 330 2.6 3.5 0.00 0.00 0.00 39 1014.2
20260508110003 49 330 2.6 4.3 0.00 0.00 0.00 40 1014.2
20260508105003 50 329 1.7 3.5 0.00 0.00 0.00 40 1014.2
20260508104003 52 0 0.0 0.0 0.00 0.00 0.00 36 1014.1
20260508103004 52 329 1.7 3.5 0.00 0.00 0.00 36 1014.1
20260508102003 52 325 1.7 3.5 0.00 0.00 0.00 36 1014.1
20260508101003 52 311 1.7 4.3 0.00 0.00 0.00 37 1014.1
20260508100004 53 300 3.5 4.3 0.00 0.00 0.00 35 1014.1
20260508095003 53 293 2.6 5.2 0.00 0.00 0.00 36 1014.2
20260508094003 54 288 4.3 5.2 0.00 0.00 0.00 33 1014.2
20260508093003 55 286 3.5 5.2 0.00 0.00 0.00 32 1014.3
20260508092003 54 286 3.5 5.2 0.00 0.00 0.00 33 1014.3
20260508091003 54 290 3.5 5.2 0.00 0.00 0.00 35 1014.4
20260508090003 54 291 3.5 6.1 0.00 0.00 0.00 35 1014.4
20260508085003 52 316 2.6 5.2 0.00 0.00 0.00 39 1014.4
20260508084214 52 319 2.6 5.2 0.00 0.00 0.00 39 1014.4
20260508083003 54 299 3.5 5.2 0.00 0.00 0.00 36 1014.6
20260508082214 54 294 3.5 5.2 0.00 0.00 0.00 35 1014.5
20260508081004 55 287 4.3 6.1 0.00 0.00 0.00 35 1014.6
20260508080004 55 286 4.3 6.1 0.00 0.00 0.00 35 1014.7
20260508075003 54 289 3.5 5.2 0.00 0.00 0.00 36 1014.7
20260508074003 53 301 2.6 4.3 0.00 0.00 0.00 39 1014.8
20260508073213 53 299 2.6 4.3 0.00 0.00 0.00 40 1014.8
20260508072213 54 298 2.6 4.3 0.00 0.00 0.00 39 1014.8
20260508071003 54 308 2.6 4.3 0.00 0.00 0.00 39 1014.9
20260508070003 54 298 1.7 3.5 0.00 0.00 0.00 40 1014.9
20260508065003 55 288 3.5 5.2 0.00 0.00 0.00 40 1014.9
20260508064213 55 284 4.3 6.1 0.00 0.00 0.00 42 1014.9
20260508063003 55 286 4.3 6.1 0.00 0.00 0.00 43 1015.1
20260508062003 55 285 4.3 6.1 0.00 0.00 0.00 44 1015.1
20260508061003 52 307 2.6 5.2 0.00 0.00 0.00 51 1015.1
20260508060003 52 323 2.6 3.5 0.00 0.00 0.00 57 1015.2
20260508055003 51 323 2.6 3.5 0.00 0.00 0.00 58 1015.2
20260508054003 52 328 3.5 4.3 0.00 0.00 0.00 58 1015.2
20260508053003 52 335 2.6 4.3 0.00 0.00 0.00 55 1015.3
20260508052003 53 0 0.0 0.0 0.00 0.00 0.00 54 1015.4
20260508051003 54 335 0.9 2.6 0.00 0.00 0.00 53 1015.3
20260508050003 54 335 0.0 2.6 0.00 0.00 0.00 53 1015.4
20260508045003 54 0 0.0 0.0 0.00 0.00 0.00 51 1015.4
20260508044214 55 0 0.0 0.0 0.00 0.00 0.00 50 1015.4